Location: Trois-Rivi�res
(46.3500°N, 72.5500°W)
Time: 06:33:30
(UTC-04:00)

Tiangong 2 - Pass Details

Date: 13 October 2017
Orbit: 388 x 391 km, 42.8° (Epoch: 20 October)

Event Time Altitude Azimuth Distance (km) Brightness Sun altitude
Exits shadow 05:53:33 22° 238° (WSW) 920 2.5 -13.1°
Maximum altitude 05:55:15 43° 177° (S) 560 1.9 -12.8°
Drops below altitude 10° 05:58:19 10° 104° (ESE) 1,422 5.3 -12.3°
Sets 06:00:27 0° 98° (E) 2,279 7.0 -11.9°
